Weather History for Evansville, IN

Change the Weather History Date:

Thursday, October 18, 2012

  Actual Average Record
Temperature  
Mean Temperature 57 °F 57 °F  
Max Temperature 66 °F 69 °F 86 °F (1924)
Min Temperature 47 °F 45 °F 26 °F (1948)
Degree Days  
Heating Degree Days 8 9  
Month to date heating degree days 153 120  
Since 1 July heating degree days 196 167  
Cooling Degree Days 0 1  
Month to date cooling degree days 5 25  
Year to date cooling degree days 1826 1391  
Growing Degree Days 7 (Base 50)    
Moisture  
Dew Point 43 °F    
Average Humidity 60    
Maximum Humidity 89    
Minimum Humidity 30    
Precipitation  
Precipitation 0.02 in 0.11 in 2.11 in (2004)
Month to date precipitation 2.22 1.83  
Year to date precipitation 27.79 35.80  
Snow  
Snow 0.00 in 0.00 in - ()
Month to date snowfall 0.0 0.0  
Since 1 July snowfall 0.0 0.0  
Since 1 September snowfall 0.0 0.0  
Snow Depth 0.00 in    
Sea Level Pressure  
Sea Level Pressure 29.63 in    
Wind  
Wind Speed 13 mph (SW)    
Max Wind Speed 30 mph    
Max Gust Speed 44 mph    
Visibility 10 miles    
Events Rain    
T = Trace of Precipitation, MM = Missing Value Source: NWS Daily Summary

Daily Weather History Graph

Daily Weather History Graph

Search for Another Location

Airport:

Trip Planner

Search our weather history database for the weather conditions in past years. The results will help you decide how hot, cold, wet, or windy it might be!

Date:

Astronomy

Oct. 18, 2012 Rise Set
Actual Time 7:02 AM CDT 6:07 PM CDT
Civil Twilight 6:35 AM CDT 6:34 PM CDT
Nautical Twilight 6:04 AM CDT 7:04 PM CDT
Astronomical Twilight 5:34 AM CDT 7:35 PM CDT
Moon 10:40 AM CDT (10/18) 8:44 PM CDT (10/18)
Length of Visible Light 11h 58m
Length of Day
11h 05m
Waxing Crescent, 14% of the Moon is Illuminated
Oct 18
Waxing Crescent
Oct 21
First Quarter
Oct 29
Full
Nov 6
Last Quarter
Nov 13
New

Hourly Weather History & Observations

Time (CDT) Temp. Dew Point Humidity Pressure Visibility Wind Dir Wind Speed Gust Speed Precip Events Conditions
12:13 AM 59.0 °F 57.2 °F 94% 29.52 in 10.0 mi South 11.5 mph 19.6 mph 0.01 in   Overcast
12:54 AM 60.1 °F 57.0 °F 90% 29.52 in 10.0 mi SSW 15.0 mph - 0.01 in   Overcast
1:00 AM 60.8 °F 57.2 °F 88% 29.54 in 10.0 mi SSW 13.8 mph - 0.00 in Rain Light Rain
1:24 AM 53.6 °F 48.2 °F 82% 29.56 in 8.0 mi NW 17.3 mph 26.5 mph 0.02 in Rain Light Rain
1:32 AM 53.6 °F 48.2 °F 82% 29.57 in 10.0 mi WNW 11.5 mph 23.0 mph 0.02 in   Overcast
1:54 AM 54.0 °F 48.9 °F 83% 29.57 in 10.0 mi WNW 8.1 mph - 0.02 in   Overcast
2:54 AM 53.1 °F 50.0 °F 89% 29.59 in 10.0 mi SW 6.9 mph - 0.00 in   Overcast
3:54 AM 52.0 °F 48.9 °F 89% 29.61 in 10.0 mi SW 10.4 mph - N/A   Clear
4:54 AM 52.0 °F 48.0 °F 86% 29.63 in 10.0 mi SW 9.2 mph - N/A   Clear
5:54 AM 50.0 °F 46.9 °F 89% 29.65 in 10.0 mi SW 8.1 mph - N/A   Clear
6:54 AM 48.0 °F 45.0 °F 89% 29.65 in 10.0 mi SW 5.8 mph - N/A   Clear
7:54 AM 51.1 °F 46.9 °F 86% 29.68 in 10.0 mi SSW 8.1 mph - N/A   Clear
8:54 AM 53.1 °F 46.9 °F 80% 29.69 in 10.0 mi SSW 13.8 mph - N/A   Clear
9:54 AM 57.0 °F 45.0 °F 64% 29.69 in 10.0 mi SW 16.1 mph 21.9 mph N/A   Clear
10:54 AM 60.1 °F 44.1 °F 55% 29.69 in 10.0 mi SSW 17.3 mph 23.0 mph N/A   Clear
11:54 AM 63.0 °F 42.1 °F 46% 29.68 in 10.0 mi SSW 25.3 mph 35.7 mph N/A   Clear
12:54 PM 63.0 °F 37.0 °F 38% 29.68 in 10.0 mi WSW 19.6 mph 28.8 mph N/A   Mostly Cloudy
1:54 PM 64.9 °F 33.1 °F 31% 29.65 in 10.0 mi WSW 17.3 mph 27.6 mph N/A   Partly Cloudy
2:54 PM 63.0 °F 30.9 °F 30% 29.64 in 10.0 mi SW 20.7 mph 31.1 mph N/A   Mostly Cloudy
3:54 PM 64.9 °F 32.0 °F 29% 29.64 in 10.0 mi WSW 19.6 mph 24.2 mph N/A   Mostly Cloudy
4:54 PM 63.0 °F 32.0 °F 31% 29.65 in 10.0 mi WSW 16.1 mph 24.2 mph N/A   Clear
5:54 PM 59.0 °F 33.1 °F 38% 29.66 in 10.0 mi SW 15.0 mph 23.0 mph N/A   Clear
6:54 PM 57.0 °F 34.0 °F 42% 29.68 in 10.0 mi SW 13.8 mph - N/A   Clear
7:54 PM 55.0 °F 36.0 °F 49% 29.69 in 10.0 mi SSW 8.1 mph - N/A   Clear
8:54 PM 53.1 °F 36.0 °F 52% 29.68 in 10.0 mi SSW 8.1 mph - N/A   Clear
9:54 PM 54.0 °F 35.1 °F 49% 29.67 in 10.0 mi SSW 10.4 mph - N/A   Overcast
10:54 PM 54.0 °F 35.1 °F 49% 29.65 in 10.0 mi SSW 11.5 mph - N/A   Partly Cloudy
11:54 PM 54.0 °F 34.0 °F 47% 29.63 in 10.0 mi SSW 12.7 mph 19.6 mph N/A   Scattered Clouds